STARLINK-6082, 56110

Orbit data source: Space-Track

STARLINK-6082, 56110 is a payload satellite owned by SpaceX/Seattle (US) in LEO that was launched on Wed, 29 Mar 2023 UTC via an FALCON 9 launch vehicle from the Air Force Eastern Test Range (AFETR). Payload-class satellites include a variety of spacecraft equipped with specific instruments for various scientific and technological missions. These include communications satellites like Starlink; space stations such as the ISS; scientific satellites like the Hubble; Earth observation satellites from companies like Planet Labs, Umbra, and HawkEye 360; GPS; miniature CubeSats for education and research; and military/defense satellites.

Loading next visibility...
Identifier
56110, 2023-046T
Orbit
LEO
Country
Flag of USUS
Related business
Manufacturer
SpaceX/Seattle
Mission
Operational Commercial Communications
Bus & Motor
STARLINK, Unknown motor
Mass
305 kg wet, ~290 kg dry
Launch date (UTC)
2023-03-29 (3 years ago)
Launch vehicle
FALCON 9
Launch site
Air Force Eastern Test Range (AFETR)
Object type
Payload
Rocket body
Debris
Shape & HBR
Box + 1 Pan, 10.1 m
Radar Cross Section
11.087 m², Large (>1 m²)

Expand to show TLE details & history
Last TLE update: 2 days ago

TLE from 2 days ago
0 STARLINK-6082
1 56110U 23046T   26171.37438483  .00000285  00000-0  19892-4 0  9993
2 56110  43.0011 301.8226 0001445 268.1772  91.8914 15.27578849177736
Epoch: 2026-06-20T08:59Z
TLE epoch observation values (Epoch: 2026-06-20T08:59:06.849Z)
Latitude
-0.00002°
Longitude
-101.54588°
Altitude
482.861 km
Speed
7.626 km/s
True Right ascension
20h 07m 17s
True Declination
0° 00' 00"
Sunlit
Object was in full shadow at epoch
Visualization orbit readout
Latitude
Unknown
Longitude
Unknown
Altitude
Unknown
Speed
Unknown
Apparent Right ascension
Unknown
Apparent Declination
Unknown
Sunlit
N/A
Visualization observer readout
Local Sidereal Time
21:27:08
Azimuth
Unknown
Elevation
Unknown
Doppler factor
Unknown
Orbital elements
Apogee altitude
485.989 km
Perigee altitude
484.006 km
Semi-major axis
6,863.135 km
Eccentricity
0.00014
Inclination
43.0011°
RAAN
301.8226°
Arg. of periapsis
268.1772°
True anomaly
91.90795°
Mean anomaly
91.8914°
Eccentric anomaly
91.89967°
Mean motion
3.81733 °/min
Orbital period
94.31 mins
BSTAR
0.000019892
Loading maneuver chart data...
Computing Atmospheric mass density...
Loading historical data...
Loading historical data...
Loading historical data...
Loading historical data...
Loading historical data...
Loading historical data...
Loading historical data...

Documentation

Showing up to 5 results
|